Date String (YYYY-MM-DD hh:mm:ss) UTC,Instrument flags,Ambient pressure (hPa),Sample flow (lpm),Bypass flow (lpm),Sample temperature (°C),Ambient temperature (°C),ASC tube jacket temperature (°C),LED temperature (°C),Box temperature (°C),Sample RH (%),Span deviation,Mass concentration (μg/m³),Mass concentration (μg/m³),Mass concentration (μg/m³)
DateTimeUTC,F1_M11,P_M11,Q1_M11,Q2_M11,T1_M11,T2_M11,T3_M11,T4_M11,T5_M11,U1_M11,ZSPAN_M11,X0_M11,X2_M11,X1_M11
2023-01-22 19:00:00,,0819.3,5.00,0.00,23.8,22.8,00.0,32.5,25.6,09.8,0000.0,0006.98,0003.27,0002.77
2023-01-22 19:01:00,,0819.2,4.99,0.00,23.9,22.8,00.0,32.5,25.6,09.7,0000.0,0007.80,0003.37,0002.89
2023-01-22 19:02:00,,0819.2,5.01,0.00,23.9,22.8,00.0,32.5,25.6,09.6,0000.0,0008.38,0003.55,0003.11
2023-01-22 19:03:00,,0819.3,5.00,0.00,23.9,22.8,00.0,32.6,25.7,09.5,0000.0,0008.66,0003.67,0003.24
2023-01-22 19:04:00,,0819.2,5.00,0.00,23.9,22.8,00.0,32.6,25.7,09.6,0000.0,0009.54,0003.87,0003.40
2023-01-22 19:05:00,,0819.1,4.99,0.00,23.9,22.9,00.0,32.6,25.7,09.8,0000.0,0011.05,0004.04,0003.52
2023-01-22 19:06:00,,0819.1,4.99,0.00,23.9,22.9,00.0,32.6,25.7,10.0,0000.0,0011.44,0004.17,0003.60
2023-01-22 19:07:00,,0819.2,5.02,0.00,24.0,22.9,00.0,32.6,25.7,10.0,0000.0,0012.48,0004.29,0003.69
2023-01-22 19:08:00,,0819.2,5.01,0.00,24.0,22.9,00.0,32.6,25.7,09.9,0000.0,0014.14,0004.42,0003.76
2023-01-22 19:09:00,,0819.2,4.99,0.00,24.0,22.9,00.0,32.7,25.8,10.0,0000.0,0014.77,0004.56,0003.83
2023-01-22 19:10:00,,0819.1,5.01,0.00,24.0,22.9,00.0,32.7,25.8,10.0,0000.0,0015.68,0004.68,0003.88
2023-01-22 19:11:00,,0819.1,5.00,0.00,24.0,23.0,00.0,32.7,25.9,10.0,0000.0,0015.47,0004.74,0003.91
2023-01-22 19:12:00,,0819.2,5.03,0.00,24.0,23.0,00.0,32.7,25.9,10.0,0000.0,0015.88,0004.77,0003.91
2023-01-22 19:13:00,,0819.1,4.99,0.00,24.1,23.0,00.0,32.7,25.9,10.0,0000.0,0016.66,0004.77,0003.84
2023-01-22 19:14:00,,0819.1,4.99,0.00,24.1,23.0,00.0,32.8,25.9,10.1,0000.0,0016.84,0004.83,0003.81
2023-01-22 19:15:00,,0819.1,5.00,0.00,24.1,23.0,00.0,32.8,25.9,10.0,0000.0,0016.20,0004.73,0003.71
2023-01-22 19:16:00,,0819.1,5.00,0.00,24.1,23.0,00.0,32.8,25.9,09.7,0000.0,0015.49,0004.66,0003.65
2023-01-22 19:17:00,,0819.1,5.00,0.00,24.1,23.0,00.0,32.8,25.9,09.7,0000.0,0014.71,0004.61,0003.64
2023-01-22 19:18:00,,0819.1,5.03,0.00,24.2,23.1,00.0,32.8,26.0,09.7,0000.0,0014.40,0004.63,0003.62
2023-01-22 19:19:00,,0819.0,4.99,0.00,24.2,23.1,00.0,32.8,26.0,09.8,0000.0,0012.99,0004.62,0003.63
2023-01-22 19:20:00,,0819.0,5.00,0.00,24.2,23.1,00.0,32.9,26.0,09.8,0000.0,0012.89,0004.56,0003.64
2023-01-22 19:21:00,,0819.0,4.98,0.00,24.2,23.1,00.0,32.9,26.0,10.0,0000.0,0012.55,0004.53,0003.66
2023-01-22 19:22:00,,0819.0,5.00,0.00,24.2,23.1,00.0,32.9,26.0,10.0,0000.0,0012.09,0004.47,0003.68
2023-01-22 19:23:00,,0819.0,4.99,0.00,24.2,23.2,00.0,32.9,26.0,10.0,0000.0,0011.81,0004.46,0003.70
2023-01-22 19:24:00,,0819.0,4.99,0.00,24.2,23.2,00.0,32.9,26.1,10.0,0000.0,0010.84,0004.38,0003.71
2023-01-22 19:25:00,,0818.9,5.00,0.00,24.3,23.2,00.0,32.9,26.1,10.0,0000.0,0010.36,0004.33,0003.72
2023-01-22 19:26:00,,0818.9,5.00,0.00,24.3,23.2,00.0,32.9,26.1,09.9,0000.0,0010.40,0004.34,0003.75
2023-01-22 19:27:00,,0819.0,5.00,0.00,24.3,23.2,00.0,33.0,26.1,09.5,0000.0,0009.94,0004.30,0003.75
2023-01-22 19:28:00,,0818.9,4.99,0.00,24.3,23.2,00.0,33.0,26.1,09.5,0000.0,0009.57,0004.26,0003.75
2023-01-22 19:29:00,,0818.9,5.00,0.00,24.3,23.3,00.0,33.0,26.1,09.6,0000.0,0009.26,0004.21,0003.76
2023-01-22 19:30:00,,0818.9,5.00,0.00,24.3,23.3,00.0,33.0,26.2,09.5,0000.0,0008.99,0004.19,0003.76
2023-01-22 19:31:00,,0818.9,4.98,0.00,24.4,23.3,00.0,33.0,26.2,09.6,0000.0,0008.41,0004.21,0003.78
2023-01-22 19:32:00,,0818.9,4.99,0.00,24.4,23.3,00.0,33.0,26.2,09.7,0000.0,0008.10,0004.22,0003.80
2023-01-22 19:33:00,,0818.9,5.00,0.00,24.4,23.3,00.0,33.1,26.2,09.6,0000.0,0008.11,0004.23,0003.81
2023-01-22 19:34:00,,0818.9,5.01,0.00,24.4,23.3,00.0,33.1,26.2,09.4,0000.0,0007.96,0004.23,0003.80
2023-01-22 19:35:00,,0818.9,4.99,0.00,24.4,23.3,00.0,33.1,26.3,09.3,0000.0,0007.40,0004.20,0003.80
2023-01-22 19:36:00,,0818.9,5.01,0.00,24.4,23.3,00.0,33.1,26.3,09.4,0000.0,0007.01,0004.14,0003.77
2023-01-22 19:37:00,,0819.0,5.00,0.00,24.5,23.4,00.0,33.1,26.3,09.4,0000.0,0006.61,0004.07,0003.76
2023-01-22 19:38:00,,0818.9,5.02,0.00,24.5,23.4,00.0,33.1,26.3,09.6,0000.0,0006.54,0004.08,0003.77
2023-01-22 19:39:00,,0818.9,5.01,0.00,24.5,23.4,00.0,33.2,26.4,09.7,0000.0,0006.48,0004.09,0003.79
2023-01-22 19:40:00,,0818.9,4.99,0.00,24.5,23.4,00.0,33.2,26.4,09.5,0000.0,0006.42,0004.09,0003.78
2023-01-22 19:41:00,,0818.9,5.00,0.00,24.5,23.4,00.0,33.2,26.4,09.6,0000.0,0006.25,0004.05,0003.77
2023-01-22 19:42:00,,0818.9,4.99,0.00,24.5,23.4,00.0,33.2,26.4,09.6,0000.0,0006.17,0004.02,0003.75
2023-01-22 19:43:00,,0818.9,5.00,0.00,24.6,23.5,00.0,33.2,26.4,09.6,0000.0,0006.12,0004.00,0003.74
2023-01-22 19:44:00,,0818.9,4.99,0.00,24.6,23.5,00.0,33.2,26.4,09.6,0000.0,0006.00,0003.97,0003.72
2023-01-22 19:45:00,,0818.9,5.00,0.00,24.6,23.5,00.0,33.3,26.5,09.5,0000.0,0006.03,0003.97,0003.72
2023-01-22 19:46:00,,0818.9,4.99,0.00,24.6,23.5,00.0,33.3,26.5,09.5,0000.0,0006.11,0003.99,0003.73
2023-01-22 19:47:00,,0818.9,4.99,0.00,24.6,23.6,00.0,33.3,26.5,09.5,0000.0,0006.27,0004.01,0003.75
2023-01-22 19:48:00,,0818.9,5.02,0.00,24.7,23.6,00.0,33.3,26.5,09.5,0000.0,0006.42,0004.04,0003.76
2023-01-22 19:49:00,,0818.9,5.00,0.00,24.7,23.6,00.0,33.3,26.5,09.5,0000.0,0006.61,0004.04,0003.75
2023-01-22 19:50:00,,0818.9,4.99,0.00,24.7,23.7,00.0,33.3,26.6,09.4,0000.0,0006.66,0004.04,0003.73
2023-01-22 19:51:00,,0818.8,4.99,0.00,24.7,23.7,00.0,33.4,26.6,09.6,0000.0,0006.55,0004.03,0003.74
2023-01-22 19:52:00,,0818.9,5.00,0.00,24.7,23.7,00.0,33.4,26.6,09.4,0000.0,0007.07,0004.04,0003.76
2023-01-22 19:53:00,,0818.9,5.00,0.00,24.7,23.7,00.0,33.4,26.6,09.5,0000.0,0007.70,0004.06,0003.77
2023-01-22 19:54:00,,0818.9,5.00,0.00,24.8,23.8,00.0,33.4,26.7,09.7,0000.0,0007.97,0004.07,0003.79
2023-01-22 19:55:00,,0818.8,5.02,0.00,24.8,23.8,00.0,33.4,26.7,09.6,0000.0,0008.04,0004.09,0003.82
2023-01-22 19:56:00,,0818.8,4.98,0.00,24.8,23.8,00.0,33.5,26.7,09.4,0000.0,0008.14,0004.08,0003.82
2023-01-22 19:57:00,,0818.8,4.99,0.00,24.8,23.9,00.0,33.5,26.7,09.1,0000.0,0008.05,0004.04,0003.80
2023-01-22 19:58:00,,0818.8,5.01,0.00,24.9,23.9,00.0,33.5,26.7,09.1,0000.0,0007.94,0004.00,0003.78
2023-01-22 19:59:00,,0818.8,4.98,0.00,24.9,23.9,00.0,33.5,26.8,09.1,0000.0,0007.89,0003.98,0003.76
